Kbely Air Base

Jump to: basic info | weather | frequencies | runways | comments

Related pages: nearby airports | nearby navaids | notams | map

Basic information (top)

Codes: LKKB
Location: lon 50.121399, lat 14.543600, elev 939 ft / 286 m msl
Status: medium_airport

Weather (top)

Current conditions (rec'd 2014/10/22 15:00Z):

LKKB 221500Z 28009KT 9000 -RA BKN027 OVC033 07/05 Q1007 NOSIG

Airport forecast (rec'd 2014/10/22 06:00Z):

TAF LKKB 220500Z 2206/2306 26010KT 9999 BKN035 
      TEMPO 2206/2216 26015G25KT 
      TEMPO 2206/2306 7000 RA BKN020

Frequencies (top)

Verify before use: may be inaccurate or out of date.

APP: 124.675 MHz (APP)
GCA: 123.3 MHz (PRECISION)
TWR: 120.875 MHz (TWR)

Runways (top)

06/24: 6,562 x 148 ft (2,000 x 45 m) — paved — lighted

Latest comments (top)

No comments yet for Kbely Air Base

More... (top)

See also NOTAMs and nearby airports and navaids, or visit the Kbely Air Base page at the main OurAirports website..